KE7JVX-3 Weather Reports


Display with metric or nautical units.
time (UTC)temp
F
wind
direction
speed
MPH
gust
MPH
rain 1hr
in
rain 24hr
in
rain mn
in
humidity
%
barometer
mb
20260903063907 57 282 14.0 19.0 0.00 0.00 0.00 58 1016.6
20260903062907 58 279 14.0 19.0 0.00 0.00 0.00 57 1016.6
20260903061908 57 283 14.0 19.0 0.00 0.00 0.00 56 1016.7
20260903060907 57 279 14.0 18.0 0.00 0.00 0.00 57 1016.6
20260903055907 58 273 11.0 19.0 0.00 0.00 0.00 56 1016.7
20260903054907 58 255 13.0 22.0 0.00 0.00 0.00 52 1016.7
20260903053907 59 273 13.0 19.0 0.00 0.00 0.00 50 1016.5
20260903052907 59 274 11.0 19.0 0.00 0.00 0.00 50 1016.5
20260903051907 59 266 11.0 18.0 0.00 0.00 0.00 49 1016.6
20260903050907 59 280 12.0 19.0 0.00 0.00 0.00 49 1016.5
20260903045907 59 277 12.0 17.0 0.00 0.00 0.00 49 1016.6
20260903044907 59 280 13.0 17.0 0.00 0.00 0.00 49 1016.7
20260903043907 59 289 12.0 17.0 0.00 0.00 0.00 48 1016.8
20260903042908 59 282 11.0 16.0 0.00 0.00 0.00 48 1016.9
20260903041907 59 278 11.0 15.0 0.00 0.00 0.00 48 1016.9
20260903040907 59 280 9.0 15.0 0.00 0.00 0.00 47 1016.8
20260903035907 59 285 9.0 14.0 0.00 0.00 0.00 47 1016.8
20260903034908 59 280 9.0 14.0 0.00 0.00 0.00 47 1016.7
20260903033908 59 286 8.0 13.0 0.00 0.00 0.00 47 1016.7
20260903032910 59 288 10.0 14.0 0.00 0.00 0.00 47 1016.7
20260903031907 59 292 8.0 13.0 0.00 0.00 0.00 48 1016.5
20260903030907 59 289 6.0 14.0 0.00 0.00 0.00 50 1016.6
20260903025911 59 290 8.0 15.0 0.00 0.00 0.00 50 1016.5
20260903024907 59 294 9.0 14.0 0.00 0.00 0.00 50 1016.4
20260903023907 59 295 9.0 14.0 0.00 0.00 0.00 51 1016.3
20260903022907 59 299 8.0 12.0 0.00 0.00 0.00 51 1016.2
20260903021907 59 302 6.0 13.0 0.00 0.00 0.00 52 1016.3
20260903020907 59 302 8.0 12.0 0.00 0.00 0.00 52 1016.1
20260903015908 59 300 7.0 12.0 0.00 0.00 0.00 51 1016.1
20260903014907 60 300 6.0 12.0 0.00 0.00 0.00 51 1016.1
20260903013907 60 306 9.0 15.0 0.00 0.00 0.00 50 1016.1
20260903012907 61 293 8.0 14.0 0.00 0.00 0.00 49 1016.1
20260903011907 61 292 5.0 16.0 0.00 0.00 0.00 46 1016.1
20260903010907 62 293 6.0 14.0 0.00 0.00 0.00 47 1016.1
20260903005907 62 304 7.0 12.0 0.00 0.00 0.00 46 1016.1
20260903004907 62 301 9.0 13.0 0.00 0.00 0.00 47 1016.1
20260903003918 63 308 8.0 13.0 0.00 0.00 0.00 43 1016.1
20260903002907 63 309 8.0 15.0 0.00 0.00 0.00 41 1016.1
20260903001908 64 285 6.0 15.0 0.00 0.00 0.00 42 1016.1
20260903000907 64 304 9.0 14.0 0.00 0.00 0.00 40 1016.1
20260902235907 64 294 7.0 15.0 0.00 0.00 0.00 40 1016.1
20260902234907 64 293 8.0 17.0 0.00 0.00 0.00 40 1016.2
20260902233910 64 300 9.0 14.0 0.00 0.00 0.00 43 1016.2
20260902232907 63 296 6.0 17.0 0.00 0.00 0.00 45 1016.3
20260902231907 64 287 6.0 19.0 0.00 0.00 0.00 46 1016.5
20260902230907 64 274 10.0 16.0 0.00 0.00 0.00 44 1016.6
20260902225907 64 289 12.0 21.0 0.00 0.00 0.00 42 1016.7
20260902224907 64 285 11.0 20.0 0.00 0.00 0.00 46 1016.6
20260902223907 64 293 13.0 18.0 0.00 0.00 0.00 44 1016.7
20260902222908 64 284 8.0 21.0 0.00 0.00 0.00 49 1016.9
20260902221907 64 270 13.0 21.0 0.00 0.00 0.00 47 1016.8
20260902220907 64 276 11.0 26.0 0.00 0.00 0.00 47 1016.8
20260902215907 64 289 9.0 20.0 0.00 0.00 0.00 49 1016.9
20260902214907 63 307 7.0 25.0 0.00 0.00 0.00 50 1017.0
20260902213907 64 289 9.0 23.0 0.00 0.00 0.00 47 1017.0
20260902212907 64 258 9.0 21.0 0.00 0.00 0.00 50 1017.1
20260902212004 64 286 5.0 20.0 0.00 0.00 0.00 50 1017.1
20260902211907 64 286 5.0 20.0 0.00 0.00 0.00 50 1017.1
20260902210908 64 284 7.0 20.0 0.00 0.00 0.00 52 1017.2
20260902205907 64 264 7.0 16.0 0.00 0.00 0.00 56 1017.3
20260902204907 64 274 6.0 19.0 0.00 0.00 0.00 54 1017.4
20260902203907 64 282 6.0 19.0 0.00 0.00 0.00 51 1017.5
20260902202907 63 293 8.0 18.0 0.00 0.00 0.00 54 1017.5
20260902201909 63 261 8.0 17.0 0.00 0.00 0.00 59 1017.6
20260902200907 62 262 11.0 20.0 0.00 0.00 0.00 57 1017.7
20260902195907 62 276 8.0 16.0 0.00 0.00 0.00 56 1017.9
20260902194907 62 267 6.0 16.0 0.00 0.00 0.00 57 1018.0
20260902193907 62 249 6.0 14.0 0.00 0.00 0.00 55 1018.1
20260902192907 62 238 6.0 15.0 0.00 0.00 0.00 58 1018.2
20260902191907 63 258 6.0 14.0 0.00 0.00 0.00 57 1018.2
20260902190907 62 260 6.0 11.0 0.00 0.00 0.00 61 1018.3
20260902185907 61 294 3.0 11.0 0.00 0.00 0.00 57 1018.4
20260902184907 61 245 5.0 11.0 0.00 0.00 0.00 58 1018.4
20260902183907 60 258 6.0 14.0 0.00 0.00 0.00 61 1018.4
20260902182907 60 261 8.0 14.0 0.00 0.00 0.00 60 1018.5
20260902181907 61 259 8.0 15.0 0.00 0.00 0.00 62 1018.6
20260902180907 61 247 7.0 13.0 0.00 0.00 0.00 60 1018.7
20260902175907 60 250 5.0 13.0 0.00 0.00 0.00 59 1018.7
20260902174907 60 209 3.0 14.0 0.00 0.00 0.00 60 1018.7
20260902173907 60 256 4.0 10.0 0.00 0.00 0.00 61 1018.7
20260902172907 60 262 3.0 12.0 0.00 0.00 0.00 64 1018.7
20260902171907 59 260 6.0 14.0 0.00 0.00 0.00 66 1018.6
20260902170907 59 263 6.0 12.0 0.00 0.00 0.00 63 1018.6
20260902165907 58 265 8.0 13.0 0.00 0.00 0.00 66 1018.6
20260902164907 58 266 5.0 15.0 0.00 0.00 0.00 66 1018.5
20260902163907 59 266 6.0 13.0 0.00 0.00 0.00 66 1018.4
20260902162909 58 268 6.0 12.0 0.00 0.00 0.00 64 1018.4
20260902161907 58 241 3.0 9.0 0.00 0.00 0.00 62 1018.4
20260902160907 58 287 4.0 12.0 0.00 0.00 0.00 62 1018.4
20260902155907 58 273 7.0 13.0 0.00 0.00 0.00 61 1018.3
20260902154907 58 272 6.0 14.0 0.00 0.00 0.00 60 1018.3
20260902153907 57 269 8.0 13.0 0.00 0.00 0.00 61 1018.1
20260902152907 57 259 7.0 13.0 0.00 0.00 0.00 63 1018.1
20260902151907 57 251 5.0 12.0 0.00 0.00 0.00 60 1018.0
20260902150907 57 255 6.0 9.0 0.00 0.00 0.00 61 1018.1
20260902145907 57 240 3.0 10.0 0.00 0.00 0.00 61 1018.1
20260902144907 57 262 3.0 10.0 0.00 0.00 0.00 63 1018.0
20260902143907 57 264 4.0 10.0 0.00 0.00 0.00 63 1018.0
20260902142908 56 267 5.0 9.0 0.00 0.00 0.00 62 1018.0
20260902141907 56 273 4.0 9.0 0.00 0.00 0.00 64 1017.9
20260902140907 56 280 5.0 10.0 0.00 0.00 0.00 65 1017.9
20260902135907 56 273 7.0 10.0 0.00 0.00 0.00 64 1017.8
20260902134908 56 275 6.0 11.0 0.00 0.00 0.00 65 1017.7
20260902133907 56 278 7.0 11.0 0.00 0.00 0.00 65 1017.7
20260902132907 56 281 9.0 13.0 0.00 0.00 0.00 64 1017.6
20260902131907 55 284 9.0 12.0 0.00 0.00 0.00 68 1017.6
20260902130907 55 289 8.0 12.0 0.00 0.00 0.00 71 1017.5
20260902125907 55 289 9.0 12.0 0.00 0.00 0.00 70 1017.5
20260902124907 55 294 9.0 12.0 0.00 0.00 0.00 70 1017.3
20260902123907 55 296 9.0 12.0 0.00 0.00 0.00 70 1017.3
20260902122908 55 297 8.0 11.0 0.00 0.00 0.00 69 1017.2
20260902121907 55 299 7.0 11.0 0.00 0.00 0.00 69 1017.2
20260902120908 55 300 8.0 12.0 0.00 0.00 0.00 68 1017.2
20260902115907 55 301 8.0 12.0 0.00 0.00 0.00 68 1017.1
20260902114907 55 304 8.0 11.0 0.00 0.00 0.00 67 1017.1
20260902113907 55 303 8.0 11.0 0.00 0.00 0.00 67 1017.1
20260902112908 55 299 8.0 12.0 0.00 0.00 0.00 66 1017.1
20260902111907 55 297 8.0 14.0 0.00 0.00 0.00 61 1017.1
20260902110907 55 293 9.0 12.0 0.00 0.00 0.00 62 1017.1
20260902105907 56 300 8.0 14.0 0.00 0.00 0.00 60 1017.1
20260902104406 56 292 10.0 14.0 0.00 0.00 0.00 58 1017.2
20260902103406 56 282 10.0 16.0 0.00 0.00 0.00 57 1017.2
20260902102406 56 287 9.0 16.0 0.00 0.00 0.00 58 1017.3
20260902101406 57 291 9.0 19.0 0.00 0.00 0.00 58 1017.3
20260902100406 57 302 9.0 16.0 0.00 0.00 0.00 58 1017.3
20260902095406 57 301 10.0 15.0 0.00 0.00 0.00 59 1017.3
20260902094406 57 295 9.0 14.0 0.00 0.00 0.00 58 1017.3
20260902093406 57 299 10.0 16.0 0.00 0.00 0.00 58 1017.3
20260902092406 57 295 10.0 13.0 0.00 0.00 0.00 57 1017.3
20260902091407 57 292 9.0 17.0 0.00 0.00 0.00 58 1017.4
20260902090406 57 283 9.0 17.0 0.00 0.00 0.00 58 1017.4
20260902085406 57 299 9.0 15.0 0.00 0.00 0.00 57 1017.5
20260902084406 57 295 8.0 13.0 0.00 0.00 0.00 58 1017.6
20260902083406 57 296 9.0 16.0 0.00 0.00 0.00 57 1017.6
20260902082406 57 299 10.0 17.0 0.00 0.00 0.00 57 1017.6
20260902081407 57 301 10.0 14.0 0.00 0.00 0.00 58 1017.6
20260902080406 57 304 10.0 14.0 0.00 0.00 0.00 58 1017.7
20260902075406 57 303 10.0 14.0 0.00 0.00 0.00 58 1017.7
20260902074406 57 300 10.0 14.0 0.00 0.00 0.00 55 1017.7
20260902073406 58 300 10.0 13.0 0.00 0.00 0.00 53 1017.7
20260902072406 58 299 10.0 14.0 0.00 0.00 0.00 52 1017.7
20260902071406 58 299 8.0 12.0 0.00 0.00 0.00 49 1017.7
20260902070406 59 302 10.0 13.0 0.00 0.00 0.00 39 1017.7
20260902065406 59 298 8.0 13.0 0.00 0.00 0.00 27 1017.7